NOAA 16 DEB, 41667

Orbit data source: Space-Track

NOAA 16 DEB, 41667 is space debris in SSO originally from a launch on Thu, 21 Sep 2000 UTC launched from the Air Force Western Test Range (AFWTR). Debris objects in space refer to the collection of defunct objects orbiting the Earth. Examples of debris include non-operational satellites, rocket bodies, and fragments generated from explosions, collisions, or faulty payload assembly.

Loading next visibility...
Identifier
41667, 2000-055PG
Orbit
SSO
Last TLE update
1 week ago
Origin
Manufacturer
Unknown
Mission
Spacecraft
Bus & Motor
Unknown
Mass
Unknown
Launch date (UTC)
2000-09-21 (25 years ago)
Launch vehicle
Unknown
Launch site
Air Force Western Test Range (AFWTR)
Object type
Payload
Rocket body
Debris
Shape & HBR
Unknown
Radar Cross Section
Small (<0.1 m²)

Expand to show TLE details & history

TLE from 1 week ago
0 NOAA 16 DEB
1 41667U 00055PG  25178.51325273  .00000869  00000-0  39176-3 0  9997
2 41667  98.7683 279.0513 0031453 122.9372 237.4839 14.24511686477604
Epoch: 2025-06-27T12:19Z
TLE epoch observation values (Epoch: 2025-06-27T12:19:05.035Z)
Latitude
0.00001°
Longitude
178.41528°
Altitude
825.26 km
Speed
7.434 km/s
True Right ascension
18h 36m 12s
True Declination
0° 00' 00"
Sunlit
Object was in full shadow at epoch
Visualization orbit readout
Latitude
57.75383°
Longitude
173.74453°
Altitude
801.659 km
Speed
7.468 km/s
Apparent Right ascension
20h 40m 10s
Apparent Declination
14° 49' 17"
Sunlit
Object is in daylight
Visualization observer readout
Local Sidereal Time
10:28:56
Azimuth
30.564° NE
Elevation
-29.696°
Doppler factor
1
Orbital elements
Apogee altitude
829.891 km
Perigee altitude
784.69 km
Semi-major axis
7,185.427 km
Eccentricity
0.00315
Inclination
98.7683°
RAAN
279.0513°
Arg. of periapsis
122.9372°
True anomaly
Unknown
Mean anomaly
237.4839°
Eccentric anomaly
Unknown
Mean motion
3.5634 °/min
Orbital period
101.03 mins
BSTAR
0.00039176
Loading maneuver chart data...
Loading SW <> Apogee altitude chart data...
Loading historical data...
Loading historical data...
Loading historical data...
Loading historical data...
Loading historical data...
Loading historical data...
Loading historical data...

NOAA 16 DEB Visibility forecast

Observer location: undefined°, undefined°

Span
Click to sort rows by Start time (UTC) header in descending order
Start Az.
Max El. time (UTC)
Max El. Az.
Max El.
End time (UTC)
End Az.
8 mins2025-07-07 06:45:47.908Z170.203° S2025-07-07 06:49:47.908Z315.841° NNW43.725°2025-07-07 06:53:47.908Z343.776° N
8 mins2025-07-07 19:01:47.908Z35.844° NE2025-07-07 19:05:47.908Z107.6° ESE32.243°2025-07-07 19:09:47.908Z164.903° S
6 mins2025-07-07 20:42:47.908Z331.234° NNW2025-07-07 20:44:47.908Z300.363° NW22.656°2025-07-07 20:48:47.908Z244.663° WSW
|